Regional Weather Roundup
Issued by NWS Portland, ME

Current Version | Previous Version | Text Only | Print | Product List | Glossary Off
Versions: 1 2 3 4 5 6 7 8 9 10 11 12 13 14 15 16 17 18 19 20 21 22 23 24 25 26 27 28 29 30 31 32 33 34 35 36 37 38 39 40 41 42 43 44 45 46 47 48 49 50
380 ASUS41 KGYX 210810 RWRGYX WEATHER ROUNDUP FOR MAINE AND NEW HAMPSHIRE NATIONAL WEATHER SERVICE GRAY ME 400 AM EDT SAT OCT 21 2017 MEZ002-005-006-010-012-015-018-020-021-024-026-027-029-210900- MAINE CITY SKY/WX TMP DP RH WIND PRES REMARKS PORTLAND CLOUDY 46 36 68 CALM 30.17R SANFORD PTCLDY 36 35 96 CALM 30.18S BAR HARBOR CLEAR 47 38 71 W3 30.15R WISCASSET PTCLDY 42 38 85 CALM 30.18R ROCKLAND CLEAR 41 38 89 W5 30.16R FRYEBURG CLOUDY 45 40 82 SW3 30.16R LEWISTONAUBURN CLOUDY 40 37 89 CALM 30.16S AUGUSTA PTCLDY 53 35 50 NW5 30.16R WATERVILLE CLOUDY 43 38 82 CALM 30.13R BANGOR PTCLDY 42 35 76 SW8 30.15R GREENVILLE N/A 44 35 70 VRB3 30.11R MILLINOCKET CLEAR 47 35 63 NW8 30.13R HOULTON CLEAR 39 34 82 W6 30.10 PRESQUE ISLE CLEAR 31 29 92 VRB6 30.11R FRENCHVILLE CLEAR 37 29 72 NW10 30.08R CARIBOU CLEAR 38 31 76 W3 30.09R $$ NHZ002-005-008-009-011-012-014-210900- NEW HAMPSHIRE CITY SKY/WX TMP DP RH WIND PRES REMARKS PORTSMOUTH MOCLDY 48 38 69 W6 30.17R ROCHESTER PTCLDY 55 33 43 W6 30.18R NASHUA PTCLDY 42 39 89 NW6 30.22R MANCHESTER CLOUDY 45 40 82 CALM 30.20R CONCORD PTCLDY 41 36 82 CALM 30.22R LACONIA PTCLDY 50 41 71 SW7 30.20R PLYMOUTH FAIR 42 36 79 NW5 30.21R BERLIN CLEAR 32 31 96 CALM 30.19R WHITEFIELD CLOUDY 31 29 92 CALM 30.22R JAFFREY CLEAR 42 39 89 S5 30.24R KEENE CLEAR 36 35 96 S9 30.26R LEBANON PTCLDY 38 35 89 CALM 30.22R MT WASHINGTON PTCLDY 36 30 80 NW52 N/A $$ VTZ005-007-008-210900- VERMONT CITY SKY/WX TMP DP RH WIND PRES REMARKS ST JOHNSBURY N/A 37 36 96 MISG 30.21R BURLINGTON CLOUDY 47 40 76 CALM 30.20S $$ MAZ007-012-024-CTZ003-RIZ002-NYZ038-NYZ072-210900- SOUTHERN NEW ENGLAND AND NY CITY SKY/WX TMP DP RH WIND PRES REMARKS BOSTON CLEAR 56 36 47 W6 30.20R WORCESTER CLEAR 53 32 44 NW15 30.23R NANTUCKET CLEAR 53 48 83 N7 30.18S PROVIDENCE CLEAR 49 41 74 CALM 30.21R HARTFORD CLEAR 43 39 86 CALM 30.24S ALBANY CLEAR 44 36 73 CALM 30.26R NEW YORK CITY PTCLDY 62 41 46 N3 30.25R $$ ANZ081-ANZ082-ANZ150-NHZ014-MEZ023>029-210900- COASTAL MARINE OBSERVATIONS STATION/POSITION TIME TEMP WIND PRES WAVE AIR SEA DIR/SP/G HT/PER (UTC) (F) (DEG/KT/KT) (MB) (FT/S) MOUNT DESERT ROC 0800 55 270/ 5/ 6 1021.0R MATINICUS ROCK 0700 55 290/ 11/ 11 1020.2R ISLE OF SHOALS 0700 57 280/ 9/ 10 1021.4R JEFFREYS LEDGE 0736 58 N/A 1/ 8 GEORGES BANK BUO 0650 59 58 1019.0 4/ 6 $$ .............KEY.............. WCI - WIND CHILL TC - TEMPERATURE IN CELSIUS VSB - VISIBILITY IN MILES HX - HEAT INDEX FAIR- INDICATES FEW OR NO CLOUDS BELOW 12,000 FT, WITH NO SIGNIFICANT WEATHER AND/OR OBSTRUCTIONS TO VISIBILITY.

USA.gov is the U.S. government's official web portal to all federal, state and local government web resources and services.